DLH82K VHHH-EDDF

Flight info

Callsign DLH82K
Flight time N/A
Altitude 34100
Route BEKOL A461 SHL W22 TEPID W24 OSNOV G586 QP B330 ELKAL W179 SAMIV/K0932S1100 W179 IGNAK/K0922S1070 W179 WFX/K0922S1100 W179 OMBON W195 VIDEK/K0909S1070 W195 LAXAL/K0906S1100 W195 IDOPA W197 ANDIM B215 IBANO G470 AKLAS W192 KEXAB/K0893S1160 W192 FKG A368 SARIN/K0895F380 N161 MASAV/K0913F400 N161 GASBI/N0491F400 N161 LEYLA T916 MATAL DCT TABAS DCT REBLO UM11 CRM UL746 ODERO DCT OPT DCT IRLOX DCT BALUX DCT TEKNO DCT ABETI DCT SUBEN DCT AKINI T161 DEBHI DEBHI1B
Aircraft A359/H-SDE2E3GHIJ3J4J5LM1ORWXY/LB1D1

Departure

Time 2026-05-07 17:51
Airport Hong Kong International Airport (VHHH)

Arrival

Time N/A
Airport Frankfurt Main Airport (EDDF)
Time Latitude Longitude Altitude Speed Heading
2026-05-07 17:23 22.31349 113.93134 38 ft 0 kts 341°
2026-05-07 17:34 22.31339 113.93138 37 ft 4 kts 341°
2026-05-07 17:35 22.31313 113.93147 35 ft 4 kts 341°
2026-05-07 17:35 22.31291 113.93155 36 ft 2 kts 341°
2026-05-07 17:35 22.31268 113.93160 36 ft 4 kts 23°
2026-05-07 17:35 22.31254 113.93143 36 ft 4 kts 71°
2026-05-07 17:36 22.31245 113.93115 35 ft 4 kts 71°
2026-05-07 17:36 22.31242 113.93105 34 ft 0 kts 71°
2026-05-07 17:41 22.31243 113.93121 38 ft 5 kts 95°
2026-05-07 17:42 22.31206 113.93138 38 ft 6 kts 191°
2026-05-07 17:42 22.31167 113.93116 38 ft 7 kts 207°
2026-05-07 17:42 22.31122 113.93109 38 ft 7 kts 175°
2026-05-07 17:42 22.31075 113.93124 38 ft 7 kts 161°
2026-05-07 17:43 22.31028 113.93141 37 ft 8 kts 161°
2026-05-07 17:43 22.31002 113.93150 38 ft 8 kts 161°
2026-05-07 17:43 22.30950 113.93169 38 ft 8 kts 162°
2026-05-07 17:43 22.30898 113.93158 38 ft 8 kts 221°
2026-05-07 17:44 22.30865 113.93093 38 ft 12 kts 249°
2026-05-07 17:44 22.30834 113.93000 38 ft 15 kts 252°
2026-05-07 17:44 22.30799 113.92887 38 ft 17 kts 251°
2026-05-07 17:44 22.30755 113.92756 38 ft 20 kts 250°
2026-05-07 17:45 22.30710 113.92608 38 ft 22 kts 252°
2026-05-07 17:45 22.30661 113.92454 38 ft 22 kts 250°
2026-05-07 17:45 22.30609 113.92302 38 ft 22 kts 250°
2026-05-07 17:45 22.30559 113.92150 38 ft 21 kts 250°
2026-05-07 17:46 22.30512 113.91995 38 ft 22 kts 251°
2026-05-07 17:46 22.30458 113.91828 38 ft 25 kts 250°
2026-05-07 17:46 22.30397 113.91640 38 ft 28 kts 251°
2026-05-07 17:46 22.30331 113.91435 38 ft 30 kts 251°
2026-05-07 17:47 22.30259 113.91215 38 ft 32 kts 251°
2026-05-07 17:47 22.30185 113.90985 38 ft 32 kts 250°
2026-05-07 17:47 22.30112 113.90760 38 ft 31 kts 251°
2026-05-07 17:47 22.30041 113.90540 38 ft 31 kts 251°
2026-05-07 17:48 22.29972 113.90323 38 ft 30 kts 251°
2026-05-07 17:48 22.29905 113.90112 38 ft 29 kts 251°
2026-05-07 17:48 22.29838 113.89905 38 ft 29 kts 250°
2026-05-07 17:48 22.29801 113.89795 38 ft 8 kts 250°
2026-05-07 17:49 22.29764 113.89761 38 ft 7 kts 185°
2026-05-07 17:49 22.29719 113.89774 38 ft 7 kts 162°
2026-05-07 17:49 22.29660 113.89794 36 ft 10 kts 159°
2026-05-07 17:49 22.29636 113.89834 36 ft 6 kts 92°
2026-05-07 17:50 22.29643 113.89873 36 ft 5 kts 73°
2026-05-07 17:50 22.29644 113.89875 36 ft 0 kts 71°
2026-05-07 17:50 22.29673 113.89970 36 ft 39 kts 71°
2026-05-07 17:50 22.29830 113.90452 37 ft 96 kts 70°
2026-05-07 17:51 22.30108 113.91313 38 ft 145 kts 71°
2026-05-07 17:51 22.30479 113.92472 240 ft 167 kts 72°
2026-05-07 17:51 22.30839 113.93620 860 ft 163 kts 71°
2026-05-07 17:51 22.31230 113.94812 1240 ft 175 kts 71°
2026-05-07 17:52 22.31653 113.96065 1731 ft 178 kts 71°
2026-05-07 17:52 22.32084 113.97306 2107 ft 179 kts 71°
2026-05-07 17:52 22.32500 113.98616 2352 ft 188 kts 72°
2026-05-07 17:52 22.32916 113.99962 2701 ft 190 kts 72°
2026-05-07 17:53 22.33340 114.01314 3076 ft 192 kts 72°
2026-05-07 17:53 22.33725 114.02742 3277 ft 204 kts 79°
2026-05-07 17:53 22.33787 114.04313 3448 ft 216 kts 98°
2026-05-07 17:53 22.33341 114.05882 3727 ft 222 kts 118°
2026-05-07 17:54 22.32410 114.07213 4084 ft 224 kts 138°
2026-05-07 17:54 22.31110 114.08184 4349 ft 234 kts 154°
2026-05-07 17:54 22.29514 114.08715 4590 ft 245 kts 173°
2026-05-07 17:54 22.27796 114.08793 4980 ft 252 kts 181°
2026-05-07 17:55 22.25995 114.08756 5220 ft 265 kts 181°
2026-05-07 17:55 22.24126 114.08714 5614 ft 271 kts 181°
2026-05-07 17:55 22.22227 114.08682 6105 ft 275 kts 181°
2026-05-07 17:55 22.20308 114.08669 6589 ft 278 kts 180°
2026-05-07 17:56 22.18401 114.09057 7055 ft 283 kts 158°
2026-05-07 17:56 22.16804 114.10292 7501 ft 288 kts 130°
2026-05-07 17:56 22.15887 114.12203 7865 ft 290 kts 103°
2026-05-07 17:56 22.15626 114.14366 7963 ft 293 kts 94°
2026-05-07 17:57 22.15519 114.16562 7969 ft 294 kts 93°
2026-05-07 17:57 22.15451 114.18023 7969 ft 294 kts 93°
2026-05-07 17:57 22.15297 114.20973 7968 ft 295 kts 94°
2026-05-07 17:57 22.15171 114.23178 7968 ft 295 kts 94°
2026-05-07 17:58 22.15162 114.25383 7967 ft 295 kts 83°
2026-05-07 17:58 22.15532 114.27557 7970 ft 295 kts 77°
2026-05-07 17:58 22.16000 114.29710 7969 ft 295 kts 76°
2026-05-07 17:58 22.16315 114.31137 7969 ft 295 kts 77°
2026-05-07 17:59 22.16787 114.33289 7970 ft 295 kts 77°
2026-05-07 17:59 22.17256 114.35449 7969 ft 295 kts 77°
2026-05-07 17:59 22.17873 114.38308 7969 ft 295 kts 77°
2026-05-07 17:59 22.18543 114.40394 7963 ft 295 kts 60°
2026-05-07 18:00 22.19385 114.41566 7969 ft 293 kts 41°
2026-05-07 18:00 22.21141 114.42613 7999 ft 290 kts 12°
2026-05-07 18:00 22.23144 114.42696 8273 ft 291 kts 350°
2026-05-07 18:00 22.25142 114.42342 8850 ft 291 kts 348°
2026-05-07 18:01 22.27141 114.41946 9432 ft 293 kts 348°
2026-05-07 18:01 22.29150 114.41551 9961 ft 295 kts 348°
2026-05-07 18:01 22.31197 114.41154 10275 ft 305 kts 348°
2026-05-07 18:01 22.33303 114.40748 10500 ft 318 kts 348°
2026-05-07 18:02 22.37861 114.39879 10933 ft 343 kts 348°
2026-05-07 18:02 22.40251 114.39425 11144 ft 354 kts 348°
2026-05-07 18:02 22.42712 114.38958 11348 ft 364 kts 348°
2026-05-07 18:03 22.45243 114.38479 11558 ft 374 kts 348°
2026-05-07 18:03 22.47817 114.37950 11870 ft 379 kts 345°
2026-05-07 18:03 22.50310 114.37042 12259 ft 379 kts 333°
2026-05-07 18:03 22.52547 114.35621 12665 ft 378 kts 323°
2026-05-07 18:04 22.54667 114.33923 13072 ft 380 kts 320°
2026-05-07 18:04 22.56723 114.32116 13475 ft 382 kts 318°
2026-05-07 18:04 22.58756 114.30258 13863 ft 383 kts 317°
2026-05-07 18:04 22.60794 114.28381 14201 ft 386 kts 318°
2026-05-07 18:05 22.62851 114.26496 14533 ft 389 kts 318°
2026-05-07 18:05 22.64927 114.24610 14872 ft 390 kts 318°
2026-05-07 18:05 22.67013 114.22733 15223 ft 392 kts 319°
2026-05-07 18:05 22.69125 114.20845 15559 ft 394 kts 319°
2026-05-07 18:06 22.71247 114.18953 15894 ft 396 kts 319°
2026-05-07 18:06 22.73380 114.17054 16214 ft 398 kts 319°
2026-05-07 18:06 22.75522 114.15145 16545 ft 400 kts 319°
2026-05-07 18:06 22.77677 114.13224 16882 ft 402 kts 319°
2026-05-07 18:07 22.79841 114.11292 17183 ft 404 kts 319°
2026-05-07 18:07 22.82014 114.09349 17504 ft 406 kts 319°
2026-05-07 18:07 22.84198 114.07396 17819 ft 408 kts 319°
2026-05-07 18:07 22.86391 114.05435 18181 ft 408 kts 319°
2026-05-07 18:08 22.88582 114.03475 18496 ft 409 kts 319°
2026-05-07 18:08 22.90776 114.01509 18762 ft 411 kts 319°
2026-05-07 18:08 22.92983 113.99533 19031 ft 412 kts 319°
2026-05-07 18:08 22.95195 113.97550 19303 ft 413 kts 319°
2026-05-07 18:09 22.97417 113.95559 19572 ft 414 kts 319°
2026-05-07 18:09 22.99641 113.93564 19854 ft 415 kts 319°
2026-05-07 18:09 23.01870 113.91564 20129 ft 417 kts 319°
2026-05-07 18:09 23.04106 113.89556 20402 ft 418 kts 319°
2026-05-07 18:10 23.06349 113.87543 20679 ft 419 kts 319°
2026-05-07 18:10 23.08597 113.85522 20958 ft 420 kts 319°
2026-05-07 18:10 23.10839 113.83473 21234 ft 421 kts 316°
2026-05-07 18:10 23.12991 113.81305 21523 ft 422 kts 314°
2026-05-07 18:11 23.15050 113.79108 21887 ft 420 kts 313°
2026-05-07 18:11 23.17123 113.76858 22173 ft 422 kts 313°
2026-05-07 18:11 23.19236 113.74572 22445 ft 424 kts 314°
2026-05-07 18:11 23.21333 113.72325 22768 ft 424 kts 314°
2026-05-07 18:12 23.23448 113.70082 23042 ft 426 kts 314°
2026-05-07 18:12 23.25580 113.67838 23294 ft 427 kts 314°
2026-05-07 18:12 23.27696 113.65619 23552 ft 429 kts 314°
2026-05-07 18:12 23.29877 113.63335 23775 ft 430 kts 314°
2026-05-07 18:13 23.32037 113.61073 23990 ft 432 kts 314°
2026-05-07 18:13 23.34176 113.58832 24217 ft 433 kts 314°
2026-05-07 18:13 23.36348 113.56555 24451 ft 434 kts 314°
2026-05-07 18:13 23.38529 113.54266 24684 ft 436 kts 314°
2026-05-07 18:14 23.40711 113.51973 24909 ft 437 kts 314°
2026-05-07 18:14 23.42904 113.49668 25154 ft 439 kts 314°
2026-05-07 18:14 23.45104 113.47354 25404 ft 441 kts 314°
2026-05-07 18:14 23.47311 113.45031 25678 ft 442 kts 315°
2026-05-07 18:15 23.49529 113.42697 25946 ft 444 kts 315°
2026-05-07 18:15 23.51756 113.40351 26176 ft 447 kts 315°
2026-05-07 18:15 23.53994 113.37992 26448 ft 448 kts 315°
2026-05-07 18:15 23.56231 113.35618 26730 ft 450 kts 314°
2026-05-07 18:16 23.58465 113.33220 27030 ft 452 kts 314°
2026-05-07 18:16 23.60700 113.30807 27305 ft 453 kts 314°
2026-05-07 18:16 23.62946 113.28381 27569 ft 455 kts 314°
2026-05-07 18:16 23.65131 113.25873 27833 ft 457 kts 309°
2026-05-07 18:17 23.67009 113.23078 28098 ft 458 kts 301°
2026-05-07 18:17 23.68536 113.20019 28367 ft 460 kts 297°
2026-05-07 18:17 23.69934 113.16867 28630 ft 462 kts 295°
2026-05-07 18:17 23.71271 113.13678 28899 ft 464 kts 295°
2026-05-07 18:18 23.72588 113.10454 29129 ft 466 kts 294°
2026-05-07 18:18 23.73925 113.07222 29290 ft 469 kts 296°
2026-05-07 18:18 23.75543 113.04134 29505 ft 471 kts 304°
2026-05-07 18:18 23.77564 113.01305 29725 ft 473 kts 312°
2026-05-07 18:19 23.79969 112.98851 29952 ft 475 kts 321°
2026-05-07 18:19 23.82727 112.96848 30141 ft 479 kts 330°
2026-05-07 18:19 23.85778 112.95356 30337 ft 482 kts 338°
2026-05-07 18:19 23.88923 112.94190 30484 ft 485 kts 340°
2026-05-07 18:20 23.92152 112.93103 30645 ft 487 kts 341°
2026-05-07 18:20 23.95410 112.92055 30819 ft 489 kts 341°
2026-05-07 18:20 23.98678 112.91010 31010 ft 489 kts 341°
2026-05-07 18:20 24.01939 112.89958 31267 ft 488 kts 340°
2026-05-07 18:21 24.05191 112.88896 31518 ft 487 kts 340°
2026-05-07 18:21 24.08439 112.87825 31749 ft 487 kts 340°
2026-05-07 18:21 24.11678 112.86749 31999 ft 486 kts 340°
2026-05-07 18:21 24.14907 112.85672 32239 ft 485 kts 339°
2026-05-07 18:22 24.18137 112.84599 32450 ft 486 kts 339°
2026-05-07 18:22 24.20325 112.83872 32562 ft 486 kts 339°
2026-05-07 18:22 24.24611 112.82444 32846 ft 486 kts 339°
2026-05-07 18:22 24.27844 112.81367 33059 ft 485 kts 339°
2026-05-07 18:23 24.31071 112.80292 33271 ft 485 kts 339°
2026-05-07 18:23 24.34299 112.79217 33472 ft 484 kts 339°
2026-05-07 18:23 24.37513 112.78113 33692 ft 482 kts 336°
2026-05-07 18:23 24.40573 112.76693 33902 ft 475 kts 329°
2026-05-07 18:24 24.43394 112.74831 34042 ft 471 kts 320°
2026-05-07 18:24 24.48015 112.69829 34091 ft 468 kts 303°
2026-05-07 18:25 24.50910 112.63497 34091 ft 464 kts 285°
2026-05-07 18:25 24.51835 112.56579 34095 ft 463 kts 269°
2026-05-07 18:26 24.51651 112.49524 34091 ft 463 kts 274°
2026-05-07 18:26 24.52133 112.42476 34100 ft 462 kts 275°
2026-05-07 18:27 24.52763 112.35463 34098 ft 461 kts 276°
2026-05-07 18:27 24.53442 112.28464 34091 ft 461 kts 276°
2026-05-07 18:28 24.54120 112.21467 34099 ft 461 kts 276°
2026-05-07 18:28 24.54788 112.14473 34099 ft 461 kts 276°
2026-05-07 18:29 24.55449 112.07476 34097 ft 460 kts 276°
2026-05-07 18:29 24.56104 112.00491 34094 ft 460 kts 276°
2026-05-07 18:30 24.56757 111.93505 34096 ft 460 kts 276°
2026-05-07 18:30 24.57406 111.86516 34100 ft 460 kts 276°
2026-05-07 18:31 24.58052 111.79527 34106 ft 460 kts 276°
2026-05-07 18:31 24.58695 111.72539 34101 ft 460 kts 276°
2026-05-07 18:32 24.59336 111.65546 34103 ft 460 kts 276°
2026-05-07 18:32 24.59969 111.58602 34098 ft 460 kts 276°
2026-05-07 18:33 24.60601 111.51611 34108 ft 459 kts 276°
2026-05-07 18:33 24.61232 111.44624 34103 ft 460 kts 276°
2026-05-07 18:34 24.61860 111.37627 34112 ft 460 kts 276°
2026-05-07 18:34 24.62484 111.30631 34109 ft 460 kts 276°
2026-05-07 18:35 24.63102 111.23640 34106 ft 460 kts 275°
2026-05-07 18:35 24.63703 111.16636 34107 ft 460 kts 275°
2026-05-07 18:36 24.64300 111.09637 34106 ft 460 kts 275°
2026-05-07 18:36 24.64895 111.02646 34104 ft 460 kts 276°
2026-05-07 18:37 24.65491 110.95650 34107 ft 460 kts 275°
2026-05-07 18:37 24.66083 110.88654 34107 ft 460 kts 275°
2026-05-07 18:38 24.67139 110.81737 34101 ft 460 kts 286°
2026-05-07 18:38 24.69849 110.75390 34101 ft 462 kts 302°
2026-05-07 18:39 24.74100 110.70034 34102 ft 467 kts 312°
2026-05-07 18:39 24.78802 110.65090 34115 ft 468 kts 313°
2026-05-07 18:40 24.83562 110.60200 34109 ft 468 kts 313°
2026-05-07 18:40 24.88287 110.55269 34109 ft 468 kts 313°
2026-05-07 18:41 24.92985 110.50316 34117 ft 468 kts 313°
2026-05-07 18:41 24.97643 110.45385 34121 ft 468 kts 313°
2026-05-07 18:42 25.02335 110.40417 34120 ft 468 kts 313°
2026-05-07 18:42 25.07032 110.35456 34127 ft 468 kts 313°
2026-05-07 18:43 25.11730 110.30491 34136 ft 468 kts 313°
2026-05-07 18:43 25.16419 110.25530 34141 ft 466 kts 312°
2026-05-07 18:44 25.21100 110.20574 34146 ft 466 kts 313°
2026-05-07 18:44 25.25801 110.15642 34149 ft 466 kts 313°
2026-05-07 18:45 25.30513 110.10715 34149 ft 466 kts 313°
2026-05-07 18:45 25.35227 110.05778 34150 ft 466 kts 313°
2026-05-07 18:46 25.39928 110.00843 34147 ft 466 kts 313°
2026-05-07 18:46 25.44597 109.95935 34150 ft 466 kts 313°
2026-05-07 18:47 25.49296 109.90990 34161 ft 466 kts 313°
2026-05-07 18:47 25.53984 109.86050 34163 ft 465 kts 312°
2026-05-07 18:48 25.58674 109.81103 34157 ft 466 kts 312°
2026-05-07 18:48 25.63360 109.76156 34169 ft 466 kts 313°
2026-05-07 18:49 25.68053 109.71193 34172 ft 466 kts 313°
2026-05-07 18:49 25.72735 109.66237 34179 ft 465 kts 313°
2026-05-07 18:50 25.76280 109.61742 34188 ft 460 kts 302°
2026-05-07 18:50 25.79087 109.55505 34189 ft 455 kts 287°
2026-05-07 18:51 25.80979 109.48790 34194 ft 454 kts 285°
2026-05-07 18:51 25.82717 109.42048 34189 ft 454 kts 285°
2026-05-07 18:52 25.84454 109.35307 34215 ft 454 kts 285°
2026-05-07 18:52 25.86207 109.28579 34204 ft 453 kts 285°
2026-05-07 18:53 25.87965 109.21859 34215 ft 453 kts 285°
2026-05-07 18:53 25.89721 109.15139 34213 ft 453 kts 285°
2026-05-07 18:54 25.91472 109.08425 34221 ft 452 kts 285°
2026-05-07 18:54 25.93220 109.01730 34219 ft 451 kts 285°
2026-05-07 18:55 25.94995 108.95054 34232 ft 450 kts 285°
2026-05-07 18:55 25.96763 108.88429 34230 ft 450 kts 285°
2026-05-07 18:56 25.98537 108.81747 34238 ft 451 kts 285°
2026-05-07 18:56 26.00308 108.75055 34242 ft 450 kts 285°
2026-05-07 18:57 26.02076 108.68389 34245 ft 450 kts 285°
2026-05-07 18:57 26.03850 108.61726 34242 ft 449 kts 285°
2026-05-07 18:58 26.05617 108.55065 34245 ft 449 kts 285°
2026-05-07 18:58 26.07379 108.48409 34240 ft 448 kts 285°
2026-05-07 18:59 26.09151 108.41749 34250 ft 449 kts 286°
2026-05-07 18:59 26.11571 108.35339 34248 ft 450 kts 292°
2026-05-07 19:00 26.14261 108.29051 34249 ft 450 kts 293°
2026-05-07 19:00 26.16996 108.22779 34255 ft 450 kts 293°
2026-05-07 19:01 26.19722 108.16501 34254 ft 450 kts 293°
2026-05-07 19:01 26.22434 108.10221 34257 ft 450 kts 293°
2026-05-07 19:02 26.25143 108.03932 34262 ft 450 kts 293°
2026-05-07 19:02 26.27850 107.97634 34264 ft 451 kts 293°
2026-05-07 19:03 26.30554 107.91340 34265 ft 451 kts 293°
2026-05-07 19:03 26.33238 107.85080 34273 ft 450 kts 293°
2026-05-07 19:04 26.35930 107.78794 34287 ft 448 kts 293°
2026-05-07 19:04 26.38611 107.72521 34292 ft 448 kts 292°
2026-05-07 19:05 26.41285 107.66253 34291 ft 448 kts 292°
2026-05-07 19:05 26.43962 107.59972 34300 ft 448 kts 292°
2026-05-07 19:06 26.46632 107.53698 34293 ft 448 kts 292°
2026-05-07 19:06 26.50634 107.44278 34303 ft 448 kts 292°
2026-05-07 19:07 26.53292 107.37988 34313 ft 448 kts 292°
2026-05-07 19:07 26.55953 107.31700 34318 ft 448 kts 292°
2026-05-07 19:08 26.58614 107.25409 34310 ft 448 kts 292°
2026-05-07 19:08 26.61273 107.19116 34318 ft 448 kts 292°
2026-05-07 19:09 26.63932 107.12825 34321 ft 448 kts 292°
2026-05-07 19:09 26.66586 107.06579 34319 ft 448 kts 292°
2026-05-07 19:10 26.69255 107.00293 34312 ft 447 kts 292°
2026-05-07 19:10 26.71921 106.94009 34308 ft 447 kts 292°
2026-05-07 19:11 26.74583 106.87721 34309 ft 447 kts 292°
2026-05-07 19:11 26.77295 106.81474 34308 ft 448 kts 296°
2026-05-07 19:12 26.81052 106.75856 34303 ft 457 kts 310°
2026-05-07 19:12 26.85736 106.71011 34302 ft 460 kts 313°
2026-05-07 19:13 26.90576 106.66311 34303 ft 460 kts 314°
2026-05-07 19:13 26.95415 106.61628 34291 ft 460 kts 313°
2026-05-07 19:14 27.00236 106.56919 34292 ft 459 kts 313°
2026-05-07 19:14 27.05043 106.52196 34292 ft 459 kts 313°
2026-05-07 19:15 27.09848 106.47466 34305 ft 459 kts 313°
2026-05-07 19:15 27.14611 106.42775 34291 ft 458 kts 313°
2026-05-07 19:16 27.19402 106.38050 34288 ft 458 kts 313°
2026-05-07 19:16 27.24208 106.33342 34287 ft 459 kts 313°
2026-05-07 19:17 27.29053 106.28636 34286 ft 460 kts 313°
2026-05-07 19:17 27.33897 106.23928 34286 ft 461 kts 313°
2026-05-07 19:18 27.38744 106.19205 34281 ft 461 kts 313°
2026-05-07 19:18 27.43584 106.14480 34280 ft 460 kts 313°
2026-05-07 19:19 27.48417 106.09753 34277 ft 460 kts 313°
2026-05-07 19:19 27.53248 106.05021 34270 ft 460 kts 313°
2026-05-07 19:20 27.58078 106.00286 34269 ft 460 kts 313°
2026-05-07 19:20 27.62916 105.95535 34267 ft 462 kts 313°
2026-05-07 19:21 27.67764 105.90771 34261 ft 462 kts 313°
2026-05-07 19:21 27.72069 105.85518 34266 ft 451 kts 300°
2026-05-07 19:22 27.74864 105.79288 34264 ft 443 kts 286°
2026-05-07 19:22 27.76816 105.72679 34257 ft 444 kts 284°
2026-05-07 19:23 27.78625 105.66025 34254 ft 445 kts 283°
2026-05-07 19:23 27.79550 105.62692 34360 ft 444 kts 285°
2026-05-07 19:23 27.80676 105.59440 34600 ft 443 kts 288°
2026-05-07 19:24 27.81868 105.56240 34848 ft 441 kts 289°
2026-05-07 19:24 27.83065 105.53107 35045 ft 440 kts 289°
2026-05-07 19:24 27.84290 105.49944 35246 ft 439 kts 289°
2026-05-07 19:24 27.85515 105.46794 35462 ft 437 kts 289°
2026-05-07 19:25 27.86751 105.43618 35677 ft 435 kts 289°
2026-05-07 19:25 27.87948 105.40535 35866 ft 434 kts 289°
2026-05-07 19:25 27.89163 105.37422 36041 ft 433 kts 290°
2026-05-07 19:25 27.90465 105.34350 36187 ft 433 kts 292°
2026-05-07 19:26 27.93237 105.28250 36227 ft 439 kts 293°
2026-05-07 19:26 27.96102 105.22138 36228 ft 442 kts 296°
2026-05-07 19:27 27.99930 105.16631 36225 ft 453 kts 310°
2026-05-07 19:27 28.05043 105.12315 36225 ft 463 kts 320°
2026-05-07 19:28 28.10532 105.08455 36215 ft 465 kts 321°
2026-05-07 19:28 28.16055 105.04665 36220 ft 463 kts 321°
2026-05-07 19:29 28.21551 105.00860 36210 ft 463 kts 320°
2026-05-07 19:29 28.27028 104.97030 36209 ft 462 kts 320°
2026-05-07 19:30 28.32497 104.93191 36206 ft 462 kts 320°
2026-05-07 19:30 28.37928 104.89371 36208 ft 462 kts 320°
2026-05-07 19:31 28.43403 104.85540 36228 ft 462 kts 320°
2026-05-07 19:31 28.48876 104.81716 36207 ft 462 kts 320°
2026-05-07 19:32 28.54345 104.77889 36206 ft 462 kts 320°
2026-05-07 19:32 28.59814 104.74056 36208 ft 462 kts 320°
2026-05-07 19:33 28.65275 104.70223 36208 ft 462 kts 320°
2026-05-07 19:33 28.70746 104.66379 36207 ft 462 kts 320°
2026-05-07 19:34 28.76216 104.62533 36214 ft 462 kts 320°
2026-05-07 19:34 28.81684 104.58683 36215 ft 462 kts 320°
2026-05-07 19:35 28.87155 104.54827 36214 ft 462 kts 320°
2026-05-07 19:35 28.92605 104.50951 36218 ft 462 kts 320°
2026-05-07 19:36 28.98054 104.47059 36219 ft 462 kts 319°
2026-05-07 19:36 29.03503 104.43165 36223 ft 462 kts 320°
2026-05-07 19:37 29.08949 104.39273 36226 ft 462 kts 319°
2026-05-07 19:37 29.14406 104.35370 36227 ft 463 kts 319°
2026-05-07 19:38 29.19867 104.31461 36229 ft 463 kts 319°
2026-05-07 19:38 29.25741 104.28304 36232 ft 481 kts 334°
2026-05-07 19:39 29.29091 104.27444 36235 ft 494 kts 343°
2026-05-07 19:39 29.32511 104.27236 36235 ft 507 kts 353°
2026-05-07 19:39 29.38459 104.27886 36231 ft 516 kts 359°
2026-05-07 19:40 29.46748 104.29373 36243 ft 520 kts
2026-05-07 19:40 29.53898 104.30692 36251 ft 520 kts 360°
2026-05-07 19:41 29.59827 104.31734 36248 ft 519 kts 359°
2026-05-07 19:41 29.66964 104.32955 36254 ft 518 kts 359°
2026-05-07 19:42 29.74104 104.34169 36259 ft 518 kts 359°
2026-05-07 19:42 29.81242 104.35386 36258 ft 519 kts 359°
2026-05-07 19:43 29.88384 104.36607 36260 ft 519 kts 359°
2026-05-07 19:43 29.95508 104.37830 36267 ft 517 kts 359°
2026-05-07 19:44 30.02617 104.39052 36268 ft 516 kts 359°
2026-05-07 19:44 30.09715 104.40271 36273 ft 516 kts 359°
2026-05-07 19:45 30.16812 104.41495 36302 ft 516 kts 359°
2026-05-07 19:45 30.23907 104.42730 36257 ft 515 kts 360°
2026-05-07 19:46 30.30998 104.43968 36257 ft 515 kts 360°
2026-05-07 19:46 30.38084 104.45207 36254 ft 515 kts 360°
2026-05-07 19:47 30.45174 104.46447 36257 ft 515 kts 360°
2026-05-07 19:47 30.52262 104.47688 36266 ft 515 kts 360°
2026-05-07 19:48 30.59327 104.48465 36269 ft 501 kts 349°
2026-05-07 19:48 30.62743 104.48053 36276 ft 488 kts 340°
2026-05-07 19:48 30.66002 104.47113 36275 ft 480 kts 335°
2026-05-07 19:49 30.72365 104.44797 36276 ft 478 kts 333°
2026-05-07 19:49 30.78680 104.42320 36272 ft 480 kts 333°
2026-05-07 19:50 30.85046 104.39908 36269 ft 485 kts 337°
2026-05-07 19:50 30.88397 104.39172 36270 ft 496 kts 345°
2026-05-07 19:50 30.91855 104.38870 36270 ft 500 kts 348°
2026-05-07 19:51 30.98790 104.38600 36304 ft 503 kts 350°
2026-05-07 19:51 31.05811 104.38461 36269 ft 506 kts 351°
2026-05-07 19:52 31.12850 104.38313 36267 ft 506 kts 351°
2026-05-07 19:52 31.19892 104.38139 36270 ft 506 kts 350°
2026-05-07 19:53 31.26926 104.37949 36295 ft 506 kts 350°
2026-05-07 19:53 31.33948 104.37570 36273 ft 505 kts 348°
2026-05-07 19:54 31.40972 104.37104 36276 ft 506 kts 348°
2026-05-07 19:54 31.48008 104.36661 36281 ft 506 kts 349°
2026-05-07 19:55 31.55044 104.36243 36298 ft 507 kts 349°
2026-05-07 19:55 31.62095 104.35831 36311 ft 508 kts 349°
2026-05-07 19:56 31.69154 104.35418 36310 ft 508 kts 349°
2026-05-07 19:56 31.76215 104.34988 36308 ft 507 kts 349°
2026-05-07 19:57 31.83267 104.34602 36339 ft 508 kts 350°
2026-05-07 19:57 31.90349 104.34267 36329 ft 509 kts 350°
2026-05-07 19:58 31.97427 104.33932 36344 ft 509 kts 350°
2026-05-07 19:58 32.04507 104.33561 36341 ft 508 kts 349°
2026-05-07 19:59 32.11518 104.33191 36361 ft 509 kts 350°
2026-05-07 19:59 32.18604 104.32829 36353 ft 510 kts 350°
2026-05-07 20:00 32.25691 104.32464 36367 ft 510 kts 350°
2026-05-07 20:00 32.32783 104.32101 36357 ft 510 kts 350°
2026-05-07 20:01 32.39869 104.31733 36367 ft 509 kts 350°
2026-05-07 20:01 32.46944 104.31376 36372 ft 509 kts 350°
2026-05-07 20:02 32.54020 104.31037 36372 ft 509 kts 350°
2026-05-07 20:02 32.61097 104.30704 36392 ft 509 kts 351°
2026-05-07 20:03 32.68145 104.30368 36358 ft 505 kts 351°
2026-05-07 20:03 32.75161 104.30027 36365 ft 504 kts 350°
2026-05-07 20:04 32.82170 104.29680 36357 ft 505 kts 351°
2026-05-07 20:04 32.89188 104.29311 36346 ft 504 kts 351°
2026-05-07 20:05 32.96174 104.29010 36351 ft 502 kts 351°
2026-05-07 20:05 33.03132 104.28691 36343 ft 500 kts 351°
2026-05-07 20:06 33.10096 104.28371 36314 ft 500 kts 351°
2026-05-07 20:06 33.17044 104.28037 36336 ft 499 kts 350°